User: anonymous   Login
Location: Unspecified
(0.0000°N, 0.0000°E)
Time: 02:21:08
(UTC+01:00)
Language:

Iridium 4 Rocket - Orbit

View from above orbital plane
View from above orbital plane
View from above satellite
View from above satellite

Ground track
Ground track

The orbit data is extracted from the following two-line orbital elements,

1 24797U 97020F   16042.23806258  .00000654  00000-0  13443-3 0  9997
2 24797  86.9007 173.5047 0226793 156.8890 244.9424 14.43810314986960
Epoch (UTC): 11 February 2016 05:42:48
Eccentricity: 0.0226793
inclination: 86.9007°
perigee height: 584 km
apogee height: 907 km
right ascension of ascending node: 173.5047°
argument of perigee: 156.8890°
revolutions per day: 14.43810314
mean anomaly at epoch: 244.9424°
orbit number at epoch: 98696

The dashed part of the orbit path shows where the satellite is in the earth's shadow,  

DLR